Weather History for Crestview, FL

Change the Weather History Date:

Wednesday, August 28, 2013

  Actual Average Record
Temperature  
Mean Temperature 78 °F -  
Max Temperature 91 °F 91 °F 99 °F (2011)
Min Temperature 66 °F 70 °F 63 °F (2011)
Cooling Degree Days 14    
Growing Degree Days 28 (Base 50)    
Moisture  
Dew Point 68 °F    
Average Humidity 72    
Maximum Humidity 93    
Minimum Humidity 44    
Precipitation  
Precipitation 0.00 in - - ()
Sea Level Pressure  
Sea Level Pressure 30.04 in    
Wind  
Wind Speed 1 mph (NE)    
Max Wind Speed 6 mph    
Max Gust Speed -    
Visibility 9 miles    
Events      
Averages and records for this station are not official NWS values.
T = Trace of Precipitation, MM = Missing Value Source: NWS Daily Summary

Daily Weather History Graph

Daily Weather History Graph

Search for Another Location

Airport:

Trip Planner

Search our weather history database for the weather conditions in past years. The results will help you decide how hot, cold, wet, or windy it might be!

Date:

Astronomy

Aug. 28, 2013 Rise Set
Actual Time 6:20 AM CDT 7:13 PM CDT
Civil Twilight 5:55 AM CDT 7:38 PM CDT
Nautical Twilight 5:26 AM CDT 8:07 PM CDT
Astronomical Twilight 4:56 AM CDT 8:37 PM CDT
Moon No Moon Rise 1:39 PM CDT (8/28)
Length of Visible Light 13h 42m
Length of Day
12h 53m
Waning Gibbous, 47% of the Moon is Illuminated
Aug 28
Waning Gibbous
Sep 5
New
Sep 12
First Quarter
Sep 19
Full
Sep 26
Last Quarter

Hourly Weather History & Observations

Time (CDT) Temp. Heat Index Dew Point Humidity Pressure Visibility Wind Dir Wind Speed Gust Speed Precip Events Conditions
12:53 AM 70.0 °F - 66.9 °F 90% 30.05 in 10.0 mi Calm Calm - N/A   Clear
1:53 AM 69.1 °F - 66.9 °F 93% 30.04 in 9.0 mi Calm Calm - N/A   Clear
2:53 AM 69.1 °F - 66.0 °F 90% 30.02 in 7.0 mi Calm Calm - N/A   Clear
3:53 AM 68.0 °F - 64.9 °F 90% 30.02 in 7.0 mi Calm Calm - N/A   Clear
4:53 AM 66.9 °F - 64.9 °F 93% 30.02 in 5.0 mi Calm Calm - N/A   Clear
5:53 AM 66.9 °F - 64.9 °F 93% 30.04 in 8.0 mi Calm Calm - N/A   Clear
6:53 AM 69.1 °F - 66.0 °F 90% 30.06 in 7.0 mi Calm Calm - N/A   Clear
7:53 AM 75.0 °F - 68.0 °F 79% 30.07 in 10.0 mi NNE 3.5 mph - N/A   Clear
8:53 AM 81.0 °F 83.8 °F 68.0 °F 65% 30.09 in 10.0 mi NNE 4.6 mph - N/A   Clear
9:53 AM 84.9 °F 88.8 °F 69.1 °F 59% 30.09 in 10.0 mi Calm Calm - N/A   Clear
10:53 AM 88.0 °F 90.7 °F 66.9 °F 49% 30.09 in 10.0 mi Variable 4.6 mph - N/A   Clear
11:53 AM 88.0 °F 91.4 °F 68.0 °F 51% 30.07 in 10.0 mi Calm Calm - N/A   Clear
12:53 PM 90.0 °F 92.8 °F 66.9 °F 46% 30.06 in 10.0 mi Calm Calm - N/A   Mostly Cloudy
1:53 PM 90.0 °F 92.4 °F 66.0 °F 45% 30.05 in 10.0 mi ENE 4.6 mph - N/A   Mostly Cloudy
2:53 PM 90.0 °F 93.6 °F 68.0 °F 48% 30.03 in 10.0 mi NNE 3.5 mph - N/A   Overcast
3:53 PM 91.0 °F 93.8 °F 66.0 °F 44% 30.01 in 10.0 mi Calm Calm - N/A   Partly Cloudy
4:53 PM 91.0 °F 93.8 °F 66.0 °F 44% 30.01 in 10.0 mi NNE 4.6 mph - N/A   Scattered Clouds
5:53 PM 87.1 °F 90.6 °F 68.0 °F 53% 30.01 in 10.0 mi NNE 5.8 mph - N/A   Overcast
6:53 PM 81.0 °F 85.2 °F 72.0 °F 74% 30.01 in 10.0 mi Calm Calm - N/A   Clear
7:53 PM 80.1 °F 84.2 °F 73.0 °F 79% 30.02 in 10.0 mi Calm Calm - N/A   Overcast
8:53 PM 78.1 °F - 73.0 °F 84% 30.03 in 9.0 mi Calm Calm - N/A   Overcast
9:53 PM 75.0 °F - 72.0 °F 90% 30.04 in 9.0 mi Calm Calm - N/A   Scattered Clouds
10:53 PM 78.1 °F - 73.0 °F 84% 30.05 in 10.0 mi Calm Calm - N/A   Overcast
11:53 PM 77.0 °F - 72.0 °F 84% 30.05 in 9.0 mi Calm Calm - N/A   Overcast